Time,TemperatureF,DewpointF,PressureIn,WindDirection,WindDirectionDegrees,WindSpeedMPH,WindSpeedGustMPH,Humidity,HourlyPrecipIn,Conditions,Clouds,dailyrainin,SoftwareType,DateUTC
2013-06-21 00:01:00,63.0,-39.3,30.32,ESE,112,0.0,4.0,1,0.00,,,0.00,Weather View 32 v70,2013-06-21 04:01:00,
2013-06-21 00:06:00,62.0,-39.9,30.32,ESE,112,0.0,4.0,1,0.00,,,0.00,Weather View 32 v70,2013-06-21 04:06:00,
2013-06-21 00:11:00,62.0,-39.9,30.32,ESE,112,0.0,4.0,1,0.00,,,0.00,Weather View 32 v70,2013-06-21 04:11:00,
2013-06-21 00:16:00,62.0,-39.9,30.32,ESE,112,0.0,2.0,1,0.00,,,0.00,Weather View 32 v70,2013-06-21 04:16:00,
2013-06-21 00:21:00,62.0,-39.9,30.33,ESE,112,0.0,2.0,1,0.00,,,0.00,Weather View 32 v70,2013-06-21 04:21:00,
2013-06-21 00:26:00,62.0,-39.9,30.32,NNE,22,0.0,3.0,1,0.00,,,0.00,Weather View 32 v70,2013-06-21 04:26:00,
2013-06-21 00:31:00,61.0,-40.5,30.32,NNE,22,0.0,3.0,1,0.00,,,0.00,Weather View 32 v70,2013-06-21 04:31:00,
2013-06-21 00:36:00,61.0,-40.5,30.32,NNE,22,0.0,3.0,1,0.00,,,0.00,Weather View 32 v70,2013-06-21 04:36:00,
2013-06-21 00:41:00,61.0,-40.5,30.32,NNE,22,0.0,3.0,1,0.00,,,0.00,Weather View 32 v70,2013-06-21 04:41:00,
2013-06-21 00:46:00,60.0,-41.1,30.32,NNE,22,0.0,3.0,1,0.00,,,0.00,Weather View 32 v70,2013-06-21 04:46:00,
2013-06-21 00:51:00,60.0,-41.1,30.31,NNE,22,0.0,3.0,1,0.00,,,0.00,Weather View 32 v70,2013-06-21 04:51:00,
2013-06-21 00:56:00,60.0,-41.1,30.31,NE,45,0.0,3.0,1,0.00,,,0.00,Weather View 32 v70,2013-06-21 04:56:00,
2013-06-21 01:01:00,60.0,-41.1,30.32,SSE,157,0.0,3.0,1,0.00,,,0.00,Weather View 32 v70,2013-06-21 05:01:00,
2013-06-21 01:06:00,60.0,-41.1,30.31,SSE,157,0.0,5.0,1,0.00,,,0.00,Weather View 32 v70,2013-06-21 05:06:00,
2013-06-21 01:11:00,60.0,-41.1,30.31,SSE,157,0.0,5.0,1,0.00,,,0.00,Weather View 32 v70,2013-06-21 05:11:00,
2013-06-21 01:16:00,60.0,-41.1,30.31,SSE,157,0.0,5.0,1,0.00,,,0.00,Weather View 32 v70,2013-06-21 05:16:00,
2013-06-21 01:21:00,60.0,-41.1,30.31,SSE,157,0.0,5.0,1,0.00,,,0.00,Weather View 32 v70,2013-06-21 05:21:00,
2013-06-21 01:26:00,60.0,-41.1,30.31,SSE,157,2.0,5.0,1,0.00,,,0.00,Weather View 32 v70,2013-06-21 05:26:00,
2013-06-21 01:31:00,60.0,-41.1,30.31,SSE,157,0.0,5.0,1,0.00,,,0.00,Weather View 32 v70,2013-06-21 05:31:00,
2013-06-21 01:36:00,60.0,-41.1,30.31,South,180,0.0,6.0,1,0.00,,,0.00,Weather View 32 v70,2013-06-21 05:36:00,
2013-06-21 01:41:00,60.0,-41.1,30.31,SE,135,0.0,6.0,1,0.00,,,0.00,Weather View 32 v70,2013-06-21 05:41:00,
2013-06-21 01:46:00,60.0,-41.1,30.31,SSW,202,0.0,6.0,1,0.00,,,0.00,Weather View 32 v70,2013-06-21 05:46:00,
2013-06-21 01:51:00,59.0,-41.7,30.31,SSW,202,0.0,6.0,1,0.00,,,0.00,Weather View 32 v70,2013-06-21 05:51:00,
2013-06-21 01:56:00,59.0,-41.7,30.31,SSW,202,0.0,6.0,1,0.00,,,0.00,Weather View 32 v70,2013-06-21 05:56:00,
2013-06-21 02:01:00,59.0,-41.7,30.31,SSW,202,0.0,6.0,1,0.00,,,0.00,Weather View 32 v70,2013-06-21 06:01:00,
2013-06-21 02:06:00,59.0,-41.7,30.31,SSW,202,0.0,6.0,1,0.00,,,0.00,Weather View 32 v70,2013-06-21 06:06:00,
2013-06-21 02:11:00,59.0,-41.7,30.31,SSW,202,0.0,6.0,1,0.00,,,0.00,Weather View 32 v70,2013-06-21 06:11:00,
2013-06-21 02:16:00,59.0,-41.7,30.31,SSW,202,0.0,6.0,1,0.00,,,0.00,Weather View 32 v70,2013-06-21 06:16:00,
2013-06-21 02:21:00,59.0,-41.7,30.31,SSW,202,0.0,6.0,1,0.00,,,0.00,Weather View 32 v70,2013-06-21 06:21:00,
2013-06-21 02:26:00,59.0,-41.7,30.31,SE,135,0.0,6.0,1,0.00,,,0.00,Weather View 32 v70,2013-06-21 06:26:00,
2013-06-21 02:31:00,58.0,-42.3,30.31,SE,135,0.0,6.0,1,0.00,,,0.00,Weather View 32 v70,2013-06-21 06:31:00,
2013-06-21 02:36:00,58.0,-42.3,30.30,SE,135,0.0,3.0,1,0.00,,,0.00,Weather View 32 v70,2013-06-21 06:36:00,
2013-06-21 02:41:00,58.0,-42.3,30.30,South,180,0.0,3.0,1,0.00,,,0.00,Weather View 32 v70,2013-06-21 06:41:00,
2013-06-21 02:46:00,58.0,-42.3,30.29,SW,225,0.0,3.0,1,0.00,,,0.00,Weather View 32 v70,2013-06-21 06:46:00,
2013-06-21 02:51:00,58.0,-42.3,30.29,SW,225,0.0,3.0,1,0.00,,,0.00,Weather View 32 v70,2013-06-21 06:51:00,
2013-06-21 02:56:00,58.0,-42.3,30.29,SSE,157,4.0,6.0,1,0.00,,,0.00,Weather View 32 v70,2013-06-21 06:56:00,
2013-06-21 03:01:00,58.0,-42.3,30.29,SSE,157,0.0,6.0,1,0.00,,,0.00,Weather View 32 v70,2013-06-21 07:01:00,
2013-06-21 03:06:00,58.0,-42.3,30.29,ESE,112,5.0,6.0,1,0.00,,,0.00,Weather View 32 v70,2013-06-21 07:06:00,
2013-06-21 03:11:00,58.0,-42.3,30.29,SSE,157,2.0,6.0,1,0.00,,,0.00,Weather View 32 v70,2013-06-21 07:11:00,
2013-06-21 03:16:00,58.0,-42.3,30.29,SSE,157,0.0,6.0,1,0.00,,,0.00,Weather View 32 v70,2013-06-21 07:16:00,
2013-06-21 03:21:00,58.0,-42.3,30.29,SSE,157,0.0,6.0,1,0.00,,,0.00,Weather View 32 v70,2013-06-21 07:21:00,
2013-06-21 03:26:00,58.0,-42.3,30.29,SSE,157,1.0,6.0,1,0.00,,,0.00,Weather View 32 v70,2013-06-21 07:26:00,
2013-06-21 03:31:00,58.0,-42.3,30.29,SE,135,1.0,6.0,1,0.00,,,0.00,Weather View 32 v70,2013-06-21 07:31:00,
2013-06-21 03:36:00,58.0,-42.3,30.29,SE,135,0.0,6.0,1,0.00,,,0.00,Weather View 32 v70,2013-06-21 07:36:00,
2013-06-21 03:41:00,58.0,-42.3,30.29,ESE,112,0.0,6.0,1,0.00,,,0.00,Weather View 32 v70,2013-06-21 07:41:00,
2013-06-21 03:46:00,58.0,-42.3,30.29,ESE,112,0.0,6.0,1,0.00,,,0.00,Weather View 32 v70,2013-06-21 07:46:00,
2013-06-21 03:51:00,58.0,-42.3,30.29,ESE,112,0.0,6.0,1,0.00,,,0.00,Weather View 32 v70,2013-06-21 07:51:00,
2013-06-21 03:56:00,58.0,-42.3,30.29,ESE,112,0.0,6.0,1,0.00,,,0.00,Weather View 32 v70,2013-06-21 07:56:00,
2013-06-21 04:01:00,57.0,-42.9,30.29,ESE,112,0.0,5.0,1,0.00,,,0.00,Weather View 32 v70,2013-06-21 08:01:00,
2013-06-21 04:06:00,57.0,-42.9,30.29,ESE,112,0.0,5.0,1,0.00,,,0.00,Weather View 32 v70,2013-06-21 08:06:00,
2013-06-21 04:11:00,57.0,-42.9,30.29,ESE,112,0.0,3.0,1,0.00,,,0.00,Weather View 32 v70,2013-06-21 08:11:00,
2013-06-21 04:16:00,57.0,-42.9,30.29,ESE,112,0.0,3.0,1,0.00,,,0.00,Weather View 32 v70,2013-06-21 08:16:00,
2013-06-21 04:22:00,57.0,-42.9,30.29,SSE,157,0.0,4.0,1,0.00,,,0.00,Weather View 32 v70,2013-06-21 08:22:00,
2013-06-21 04:27:00,57.0,-42.9,30.29,SSE,157,0.0,4.0,1,0.00,,,0.00,Weather View 32 v70,2013-06-21 08:27:00,
2013-06-21 04:32:00,57.0,-42.9,30.29,SSE,157,0.0,4.0,1,0.00,,,0.00,Weather View 32 v70,2013-06-21 08:32:00,
2013-06-21 04:37:00,57.0,-42.9,30.29,ESE,112,0.0,4.0,1,0.00,,,0.00,Weather View 32 v70,2013-06-21 08:37:00,
2013-06-21 04:42:00,57.0,-42.9,30.29,ESE,112,0.0,4.0,1,0.00,,,0.00,Weather View 32 v70,2013-06-21 08:42:00,
2013-06-21 04:47:00,57.0,-42.9,30.29,ESE,112,0.0,4.0,1,0.00,,,0.00,Weather View 32 v70,2013-06-21 08:47:00,
2013-06-21 04:52:00,57.0,-42.9,30.29,ESE,112,0.0,4.0,1,0.00,,,0.00,Weather View 32 v70,2013-06-21 08:52:00,
2013-06-21 04:57:00,57.0,-42.9,30.29,ESE,112,0.0,4.0,1,0.00,,,0.00,Weather View 32 v70,2013-06-21 08:57:00,
2013-06-21 05:02:00,57.0,-42.9,30.29,ESE,112,0.0,4.0,1,0.00,,,0.00,Weather View 32 v70,2013-06-21 09:02:00,
2013-06-21 05:07:00,57.0,-42.9,30.29,ESE,112,0.0,4.0,1,0.00,,,0.00,Weather View 32 v70,2013-06-21 09:07:00,
2013-06-21 05:12:00,57.0,-42.9,30.29,ESE,112,0.0,4.0,1,0.00,,,0.00,Weather View 32 v70,2013-06-21 09:12:00,
2013-06-21 05:17:00,57.0,-42.9,30.29,ESE,112,0.0,4.0,1,0.00,,,0.00,Weather View 32 v70,2013-06-21 09:17:00,
2013-06-21 05:22:00,57.0,-42.9,30.29,ESE,112,0.0,3.0,1,0.00,,,0.00,Weather View 32 v70,2013-06-21 09:22:00,
2013-06-21 05:27:00,57.0,-42.9,30.29,ESE,112,0.0,3.0,1,0.00,,,0.00,Weather View 32 v70,2013-06-21 09:27:00,
2013-06-21 05:32:00,57.0,-42.9,30.30,SE,135,0.0,3.0,1,0.00,,,0.00,Weather View 32 v70,2013-06-21 09:32:00,
2013-06-21 05:37:00,57.0,-42.9,30.30,SE,135,0.0,3.0,1,0.00,,,0.00,Weather View 32 v70,2013-06-21 09:37:00,
2013-06-21 05:42:00,57.0,-42.9,30.30,SE,135,0.0,3.0,1,0.00,,,0.00,Weather View 32 v70,2013-06-21 09:42:00,
2013-06-21 05:47:00,57.0,-42.9,30.30,SE,135,0.0,3.0,1,0.00,,,0.00,Weather View 32 v70,2013-06-21 09:47:00,
2013-06-21 05:52:00,57.0,-42.9,30.30,SE,135,0.0,3.0,1,0.00,,,0.00,Weather View 32 v70,2013-06-21 09:52:00,
2013-06-21 05:57:00,57.0,-42.9,30.30,SE,135,0.0,3.0,1,0.00,,,0.00,Weather View 32 v70,2013-06-21 09:57:00,
2013-06-21 06:02:00,57.0,-42.9,30.30,SE,135,0.0,2.0,1,0.00,,,0.00,Weather View 32 v70,2013-06-21 10:02:00,
2013-06-21 06:07:00,57.0,-42.9,30.30,SE,135,0.0,2.0,1,0.00,,,0.00,Weather View 32 v70,2013-06-21 10:07:00,
2013-06-21 06:12:00,57.0,-42.9,30.31,ESE,112,0.0,3.0,1,0.00,,,0.00,Weather View 32 v70,2013-06-21 10:12:00,
2013-06-21 06:17:00,58.0,-42.3,30.31,East,90,0.0,5.0,1,0.00,,,0.00,Weather View 32 v70,2013-06-21 10:17:00,
2013-06-21 06:22:00,58.0,-42.3,30.31,East,90,0.0,5.0,1,0.00,,,0.00,Weather View 32 v70,2013-06-21 10:22:00,
2013-06-21 06:27:00,58.0,-42.3,30.31,SSW,202,0.0,5.0,1,0.00,,,0.00,Weather View 32 v70,2013-06-21 10:27:00,
2013-06-21 06:32:00,58.0,-42.3,30.31,SSW,202,0.0,5.0,1,0.00,,,0.00,Weather View 32 v70,2013-06-21 10:32:00,
2013-06-21 06:37:00,58.0,-42.3,30.31,SSE,157,0.0,5.0,1,0.00,,,0.00,Weather View 32 v70,2013-06-21 10:37:00,
2013-06-21 06:42:00,59.0,-41.7,30.31,SSE,157,0.0,5.0,1,0.00,,,0.00,Weather View 32 v70,2013-06-21 10:42:00,
2013-06-21 06:47:00,59.0,-41.7,30.31,SSW,202,0.0,6.0,1,0.00,,,0.00,Weather View 32 v70,2013-06-21 10:47:00,
2013-06-21 06:52:00,59.0,-41.7,30.31,SSE,157,0.0,6.0,1,0.00,,,0.00,Weather View 32 v70,2013-06-21 10:52:00,
2013-06-21 06:57:00,60.0,-41.1,30.31,ESE,112,0.0,6.0,1,0.00,,,0.00,Weather View 32 v70,2013-06-21 10:57:00,
2013-06-21 07:02:00,60.0,-41.1,30.31,South,180,0.0,6.0,1,0.00,,,0.00,Weather View 32 v70,2013-06-21 11:02:00,
2013-06-21 07:07:00,60.0,-41.1,30.31,South,180,0.0,6.0,1,0.00,,,0.00,Weather View 32 v70,2013-06-21 11:07:00,
2013-06-21 07:12:00,60.0,-41.1,30.31,WSW,247,0.0,6.0,1,0.00,,,0.00,Weather View 32 v70,2013-06-21 11:12:00,
2013-06-21 07:17:00,61.0,-40.5,30.31,SSE,157,0.0,6.0,1,0.00,,,0.00,Weather View 32 v70,2013-06-21 11:17:00,
2013-06-21 07:22:00,61.0,-40.5,30.31,SSE,157,0.0,6.0,1,0.00,,,0.00,Weather View 32 v70,2013-06-21 11:22:00,
2013-06-21 07:27:00,61.0,-40.5,30.31,South,180,0.0,6.0,1,0.00,,,0.00,Weather View 32 v70,2013-06-21 11:27:00,
2013-06-21 07:32:00,61.0,-40.5,30.31,South,180,0.0,6.0,1,0.00,,,0.00,Weather View 32 v70,2013-06-21 11:32:00,
2013-06-21 07:37:00,62.0,-39.9,30.31,South,180,0.0,6.0,1,0.00,,,0.00,Weather View 32 v70,2013-06-21 11:37:00,
2013-06-21 07:42:00,62.0,-39.9,30.31,SSW,202,0.0,6.0,1,0.00,,,0.00,Weather View 32 v70,2013-06-21 11:42:00,
2013-06-21 07:47:00,63.0,-39.3,30.31,South,180,0.0,5.0,1,0.00,,,0.00,Weather View 32 v70,2013-06-21 11:47:00,
2013-06-21 07:52:00,63.0,-39.3,30.31,South,180,0.0,6.0,1,0.00,,,0.00,Weather View 32 v70,2013-06-21 11:52:00,
2013-06-21 07:57:00,63.0,-39.3,30.31,SSW,202,1.0,6.0,1,0.00,,,0.00,Weather View 32 v70,2013-06-21 11:57:00,
2013-06-21 08:02:00,64.0,-38.7,30.31,North,360,0.0,6.0,1,0.00,,,0.00,Weather View 32 v70,2013-06-21 12:02:00,
2013-06-21 08:07:00,64.0,-38.7,30.31,West,270,0.0,6.0,1,0.00,,,0.00,Weather View 32 v70,2013-06-21 12:07:00,
2013-06-21 08:12:00,65.0,-38.1,30.31,SSE,157,2.0,6.0,1,0.00,,,0.00,Weather View 32 v70,2013-06-21 12:12:00,
2013-06-21 08:17:00,65.0,-3.9,30.31,SW,225,3.0,6.0,6,0.00,,,0.00,Weather View 32 v70,2013-06-21 12:17:00,
2013-06-21 08:22:00,65.0,-12.2,30.31,SSE,157,0.0,6.0,4,0.00,,,0.00,Weather View 32 v70,2013-06-21 12:22:00,
2013-06-21 08:27:00,66.0,11.8,30.32,SSE,157,3.0,6.0,12,0.00,,,0.00,Weather View 32 v70,2013-06-21 12:27:00,
2013-06-21 08:32:00,66.0,13.6,30.32,NW,315,0.0,6.0,13,0.00,,,0.00,Weather View 32 v70,2013-06-21 12:32:00,
2013-06-21 08:37:00,67.0,14.4,30.32,SE,135,0.0,6.0,13,0.00,,,0.00,Weather View 32 v70,2013-06-21 12:37:00,
2013-06-21 08:42:00,67.0,17.7,30.32,ESE,112,0.0,6.0,15,0.00,,,0.00,Weather View 32 v70,2013-06-21 12:42:00,
2013-06-21 08:47:00,67.0,19.2,30.32,ESE,112,0.0,6.0,16,0.00,,,0.00,Weather View 32 v70,2013-06-21 12:47:00,
2013-06-21 08:52:00,68.0,25.3,30.32,WNW,292,0.0,6.0,20,0.00,,,0.00,Weather View 32 v70,2013-06-21 12:52:00,
2013-06-21 08:57:00,68.0,20.0,30.33,SE,135,0.0,6.0,16,0.00,,,0.00,Weather View 32 v70,2013-06-21 12:57:00,
2013-06-21 09:02:00,68.0,29.8,30.33,SSW,202,4.0,6.0,24,0.00,,,0.00,Weather View 32 v70,2013-06-21 13:02:00,
2013-06-21 09:07:00,69.0,30.6,30.33,ENE,67,3.0,6.0,24,0.00,,,0.00,Weather View 32 v70,2013-06-21 13:07:00,
2013-06-21 09:12:00,69.0,35.3,30.33,West,270,1.0,6.0,29,0.00,,,0.00,Weather View 32 v70,2013-06-21 13:12:00,
2013-06-21 09:17:00,70.0,38.7,30.33,SE,135,0.0,6.0,32,0.00,,,0.00,Weather View 32 v70,2013-06-21 13:17:00,
2013-06-21 09:22:00,71.0,38.8,30.32,East,90,2.0,6.0,31,0.00,,,0.00,Weather View 32 v70,2013-06-21 13:22:00,
2013-06-21 09:27:00,72.0,37.0,30.32,SSW,202,0.0,6.0,28,0.00,,,0.00,Weather View 32 v70,2013-06-21 13:27:00,
2013-06-21 09:32:00,73.0,45.1,30.33,South,180,0.0,6.0,37,0.00,,,0.00,Weather View 32 v70,2013-06-21 13:32:00,
2013-06-21 09:37:00,74.0,47.4,30.33,SE,135,2.0,6.0,39,0.00,,,0.00,Weather View 32 v70,2013-06-21 13:37:00,
2013-06-21 09:42:00,75.0,49.6,30.33,SSE,157,0.0,6.0,41,0.00,,,0.00,Weather View 32 v70,2013-06-21 13:42:00,
2013-06-21 09:47:00,75.0,52.8,30.34,SSE,157,0.0,6.0,46,0.00,,,0.00,Weather View 32 v70,2013-06-21 13:47:00,
2013-06-21 09:52:00,76.0,54.8,30.34,South,180,1.0,6.0,48,0.00,,,0.00,Weather View 32 v70,2013-06-21 13:52:00,
2013-06-21 09:58:00,77.0,58.5,30.35,SW,225,0.0,6.0,53,0.00,,,0.00,Weather View 32 v70,2013-06-21 13:58:00,
2013-06-21 10:03:00,77.0,60.5,30.35,West,270,0.0,7.0,57,0.00,,,0.00,Weather View 32 v70,2013-06-21 14:03:00,
2013-06-21 10:08:00,77.0,59.5,30.35,South,180,2.0,7.0,55,0.00,,,0.00,Weather View 32 v70,2013-06-21 14:08:00,
2013-06-21 10:13:00,77.0,59.5,30.35,ESE,112,1.0,7.0,55,0.00,,,0.00,Weather View 32 v70,2013-06-21 14:13:00,
2013-06-21 10:18:00,78.0,59.4,30.36,SSW,202,0.0,7.0,53,0.00,,,0.00,Weather View 32 v70,2013-06-21 14:18:00,
2013-06-21 10:23:00,79.0,63.9,30.36,NW,315,2.0,7.0,60,0.00,,,0.00,Weather View 32 v70,2013-06-21 14:23:00,
2013-06-21 10:28:00,79.0,65.3,30.36,SSE,157,1.0,7.0,63,0.00,,,0.00,Weather View 32 v70,2013-06-21 14:28:00,
2013-06-21 10:33:00,80.0,67.6,30.36,SE,135,1.0,7.0,66,0.00,,,0.00,Weather View 32 v70,2013-06-21 14:33:00,
2013-06-21 10:38:00,80.0,69.7,30.36,WSW,247,0.0,7.0,71,0.00,,,0.00,Weather View 32 v70,2013-06-21 14:38:00,
2013-06-21 10:43:00,81.0,66.2,30.36,SSE,157,5.0,7.0,61,0.00,,,0.00,Weather View 32 v70,2013-06-21 14:43:00,
2013-06-21 10:48:00,81.0,66.2,30.36,ESE,112,3.0,7.0,61,0.00,,,0.00,Weather View 32 v70,2013-06-21 14:48:00,
2013-06-21 10:53:00,81.0,63.8,30.37,West,270,1.0,7.0,56,0.00,,,0.00,Weather View 32 v70,2013-06-21 14:53:00,
2013-06-21 10:58:00,80.0,62.8,30.37,WNW,292,0.0,7.0,56,0.00,,,0.00,Weather View 32 v70,2013-06-21 14:58:00,
2013-06-21 11:03:00,80.0,62.8,30.37,ENE,67,4.0,6.0,56,0.00,,,0.00,Weather View 32 v70,2013-06-21 15:03:00,
2013-06-21 11:08:00,80.0,63.3,30.37,NW,315,1.0,6.0,57,0.00,,,0.00,Weather View 32 v70,2013-06-21 15:08:00,
2013-06-21 11:13:00,80.0,64.3,30.37,ENE,67,2.0,5.0,59,0.00,,,0.00,Weather View 32 v70,2013-06-21 15:13:00,
2013-06-21 11:18:00,81.0,65.3,30.37,ENE,67,0.0,6.0,59,0.00,,,0.00,Weather View 32 v70,2013-06-21 15:18:00,
2013-06-21 11:23:00,82.0,66.7,30.37,ENE,67,2.0,6.0,60,0.00,,,0.00,Weather View 32 v70,2013-06-21 15:23:00,
2013-06-21 11:28:00,83.0,63.5,30.37,South,180,0.0,6.0,52,0.00,,,0.00,Weather View 32 v70,2013-06-21 15:28:00,
2013-06-21 11:33:00,83.0,63.5,30.37,ENE,67,4.0,6.0,52,0.00,,,0.00,Weather View 32 v70,2013-06-21 15:33:00,
2013-06-21 11:38:00,82.0,59.7,30.37,ESE,112,2.0,7.0,47,0.00,,,0.00,Weather View 32 v70,2013-06-21 15:38:00,
2013-06-21 11:43:00,82.0,64.2,30.37,WNW,292,4.0,7.0,55,0.00,,,0.00,Weather View 32 v70,2013-06-21 15:43:00,
2013-06-21 11:48:00,82.0,63.7,30.37,ENE,67,3.0,7.0,54,0.00,,,0.00,Weather View 32 v70,2013-06-21 15:48:00,
2013-06-21 11:53:00,82.0,62.0,30.37,ENE,67,3.0,7.0,51,0.00,,,0.00,Weather View 32 v70,2013-06-21 15:53:00,
2013-06-21 11:58:00,82.0,62.6,30.37,ENE,67,5.0,7.0,52,0.00,,,0.00,Weather View 32 v70,2013-06-21 15:58:00,
2013-06-21 12:03:00,82.0,60.9,30.37,WSW,247,4.0,7.0,49,0.00,,,0.00,Weather View 32 v70,2013-06-21 16:03:00,
2013-06-21 12:08:00,83.0,63.5,30.37,ESE,112,5.0,7.0,52,0.00,,,0.00,Weather View 32 v70,2013-06-21 16:08:00,
2013-06-21 12:13:00,83.0,60.0,30.37,West,270,2.0,7.0,46,0.00,,,0.00,Weather View 32 v70,2013-06-21 16:13:00,
2013-06-21 12:18:00,84.0,60.9,30.36,WNW,292,4.0,7.0,46,0.00,,,0.00,Weather View 32 v70,2013-06-21 16:18:00,
2013-06-21 12:23:00,83.0,60.6,30.36,West,270,1.0,7.0,47,0.00,,,0.00,Weather View 32 v70,2013-06-21 16:23:00,
2013-06-21 12:28:00,83.0,60.6,30.36,West,270,2.0,7.0,47,0.00,,,0.00,Weather View 32 v70,2013-06-21 16:28:00,
2013-06-21 12:33:00,83.0,60.6,30.36,West,270,4.0,7.0,47,0.00,,,0.00,Weather View 32 v70,2013-06-21 16:33:00,
2013-06-21 12:38:00,83.0,60.6,30.36,ENE,67,3.0,7.0,47,0.00,,,0.00,Weather View 32 v70,2013-06-21 16:38:00,
2013-06-21 12:43:00,82.0,60.9,30.36,ENE,67,2.0,7.0,49,0.00,,,0.00,Weather View 32 v70,2013-06-21 16:43:00,
2013-06-21 12:48:00,82.0,60.3,30.36,ENE,67,4.0,7.0,48,0.00,,,0.00,Weather View 32 v70,2013-06-21 16:48:00,
2013-06-21 12:53:00,83.0,61.8,30.36,SW,225,0.0,7.0,49,0.00,,,0.00,Weather View 32 v70,2013-06-21 16:53:00,
2013-06-21 12:59:00,84.0,60.9,30.36,NE,45,6.0,7.0,46,0.00,,,0.00,Weather View 32 v70,2013-06-21 16:59:00,
2013-06-21 13:04:00,83.0,60.0,30.37,WNW,292,1.0,7.0,46,0.00,,,0.00,Weather View 32 v70,2013-06-21 17:04:00,
2013-06-21 13:09:00,84.0,60.9,30.36,South,180,0.0,7.0,46,0.00,,,0.00,Weather View 32 v70,2013-06-21 17:09:00,
2013-06-21 13:16:00,86.0,61.5,30.36,ESE,112,1.0,7.0,44,0.00,,,0.00,Weather View 32 v70,2013-06-21 17:16:00,
2013-06-21 13:21:00,87.0,62.4,30.36,ENE,67,4.0,7.0,44,0.00,,,0.00,Weather View 32 v70,2013-06-21 17:21:00,
2013-06-21 13:26:00,86.0,61.5,30.36,West,270,3.0,7.0,44,0.00,,,0.00,Weather View 32 v70,2013-06-21 17:26:00,
2013-06-21 13:33:00,85.0,61.8,30.36,SSE,157,1.0,7.0,46,0.00,,,0.00,Weather View 32 v70,2013-06-21 17:33:00,
2013-06-21 13:38:00,87.0,63.0,30.36,SSW,202,2.0,7.0,45,0.00,,,0.00,Weather View 32 v70,2013-06-21 17:38:00,
2013-06-21 13:43:00,86.0,62.1,30.36,SSW,202,0.0,7.0,45,0.00,,,0.00,Weather View 32 v70,2013-06-21 17:43:00,
2013-06-21 13:46:00,86.0,62.7,30.36,ESE,112,1.0,7.0,46,0.00,,,0.00,Weather View 32 v70,2013-06-21 17:46:00,
2013-06-21 13:47:00,86.0,62.7,30.36,SE,135,3.0,7.0,46,0.00,,,0.00,Weather View 32 v70,2013-06-21 17:47:00,
2013-06-21 13:48:00,86.0,63.3,30.36,SSW,202,4.0,7.0,47,0.00,,,0.00,Weather View 32 v70,2013-06-21 17:48:00,
2013-06-21 13:53:00,86.0,63.3,30.35,SSW,202,0.0,7.0,47,0.00,,,0.00,Weather View 32 v70,2013-06-21 17:53:00,
2013-06-21 13:58:00,86.0,62.1,30.35,SSW,202,2.0,7.0,45,0.00,,,0.00,Weather View 32 v70,2013-06-21 17:58:00,
2013-06-21 14:03:00,86.0,60.8,30.35,South,180,2.0,6.0,43,0.00,,,0.00,Weather View 32 v70,2013-06-21 18:03:00,
2013-06-21 14:08:00,86.0,60.1,30.35,West,270,0.0,6.0,42,0.00,,,0.00,Weather View 32 v70,2013-06-21 18:08:00,
2013-06-21 14:13:00,86.0,61.5,30.35,SSW,202,2.0,7.0,44,0.00,,,0.00,Weather View 32 v70,2013-06-21 18:13:00,
2013-06-21 14:18:00,85.0,61.2,30.35,SSE,157,0.0,7.0,45,0.00,,,0.00,Weather View 32 v70,2013-06-21 18:18:00,
2013-06-21 14:24:00,85.0,59.9,30.35,East,90,2.0,7.0,43,0.00,,,0.00,Weather View 32 v70,2013-06-21 18:24:00,
2013-06-21 14:25:00,85.0,60.6,30.35,East,90,1.0,7.0,44,0.00,,,0.00,Weather View 32 v70,2013-06-21 18:25:00,
2013-06-21 14:30:00,85.0,58.6,30.35,SSW,202,0.0,7.0,41,0.00,,,0.00,Weather View 32 v70,2013-06-21 18:30:00,
2013-06-21 14:35:00,85.0,59.3,30.35,North,360,1.0,7.0,42,0.00,,,0.00,Weather View 32 v70,2013-06-21 18:35:00,
2013-06-21 14:41:00,85.0,61.2,30.35,South,180,1.0,7.0,45,0.00,,,0.00,Weather View 32 v70,2013-06-21 18:41:00,
2013-06-21 14:45:00,85.0,59.3,30.35,East,90,3.0,7.0,42,0.00,,,0.00,Weather View 32 v70,2013-06-21 18:45:00,
2013-06-21 14:46:00,85.0,59.3,30.35,East,90,3.0,7.0,42,0.00,,,0.00,Weather View 32 v70,2013-06-21 18:46:00,
2013-06-21 14:51:00,84.0,58.4,30.35,WNW,292,6.0,7.0,42,0.00,,,0.00,Weather View 32 v70,2013-06-21 18:51:00,
2013-06-21 14:56:00,84.0,60.3,30.35,ESE,112,4.0,7.0,45,0.00,,,0.00,Weather View 32 v70,2013-06-21 18:56:00,
2013-06-21 15:01:00,84.0,59.0,30.34,SSW,202,0.0,7.0,43,0.00,,,0.00,Weather View 32 v70,2013-06-21 19:01:00,
2013-06-21 15:06:00,83.0,58.1,30.34,West,270,0.0,7.0,43,0.00,,,0.00,Weather View 32 v70,2013-06-21 19:06:00,
2013-06-21 15:11:00,82.0,57.9,30.34,West,270,0.0,7.0,44,0.00,,,0.00,Weather View 32 v70,2013-06-21 19:11:00,
2013-06-21 15:16:00,83.0,60.0,30.34,SSW,202,4.0,7.0,46,0.00,,,0.00,Weather View 32 v70,2013-06-21 19:16:00,
2013-06-21 15:21:00,83.0,58.1,30.34,West,270,0.0,7.0,43,0.00,,,0.00,Weather View 32 v70,2013-06-21 19:21:00,
2013-06-21 15:26:00,83.0,60.6,30.34,South,180,2.0,7.0,47,0.00,,,0.00,Weather View 32 v70,2013-06-21 19:26:00,
2013-06-21 15:31:00,84.0,60.9,30.34,SSE,157,0.0,7.0,46,0.00,,,0.00,Weather View 32 v70,2013-06-21 19:31:00,
2013-06-21 15:36:00,84.0,57.7,30.34,West,270,0.0,7.0,41,0.00,,,0.00,Weather View 32 v70,2013-06-21 19:36:00,
2013-06-21 15:41:00,83.0,58.8,30.34,WNW,292,6.0,7.0,44,0.00,,,0.00,Weather View 32 v70,2013-06-21 19:41:00,
2013-06-21 15:42:00,83.0,58.8,30.34,WNW,292,2.0,7.0,44,0.00,,,0.00,Weather View 32 v70,2013-06-21 19:42:00,
2013-06-21 15:48:00,83.0,58.8,30.34,WNW,292,0.0,7.0,44,0.00,,,0.00,Weather View 32 v70,2013-06-21 19:48:00,
2013-06-21 15:53:00,83.0,54.7,30.34,WNW,292,1.0,6.0,38,0.00,,,0.00,Weather View 32 v70,2013-06-21 19:53:00,
2013-06-21 15:58:00,83.0,56.1,30.34,ENE,67,5.0,6.0,40,0.00,,,0.00,Weather View 32 v70,2013-06-21 19:58:00,
2013-06-21 16:03:00,83.0,56.1,30.34,SW,225,0.0,6.0,40,0.00,,,0.00,Weather View 32 v70,2013-06-21 20:03:00,
2013-06-21 16:04:00,83.0,56.1,30.34,SSW,202,0.0,6.0,40,0.00,,,0.00,Weather View 32 v70,2013-06-21 20:04:00,
2013-06-21 16:08:00,83.0,56.1,30.34,WNW,292,1.0,6.0,40,0.00,,,0.00,Weather View 32 v70,2013-06-21 20:08:00,
2013-06-21 16:11:00,83.0,56.8,30.34,West,270,0.0,6.0,41,0.00,,,0.00,Weather View 32 v70,2013-06-21 20:11:00,
2013-06-21 16:14:00,83.0,54.7,30.34,WNW,292,1.0,6.0,38,0.00,,,0.00,Weather View 32 v70,2013-06-21 20:14:00,
2013-06-21 16:19:00,83.0,54.0,30.33,ENE,67,3.0,7.0,37,0.00,,,0.00,Weather View 32 v70,2013-06-21 20:19:00,
2013-06-21 16:24:00,83.0,56.1,30.33,North,360,0.0,7.0,40,0.00,,,0.00,Weather View 32 v70,2013-06-21 20:24:00,
2013-06-21 16:29:00,83.0,52.4,30.33,WNW,292,1.0,7.0,35,0.00,,,0.00,Weather View 32 v70,2013-06-21 20:29:00,
2013-06-21 16:34:00,83.0,57.5,30.33,ENE,67,0.0,7.0,42,0.00,,,0.00,Weather View 32 v70,2013-06-21 20:34:00,
2013-06-21 16:39:00,82.0,51.6,30.33,WNW,292,7.0,7.0,35,0.00,,,0.00,Weather View 32 v70,2013-06-21 20:39:00,
2013-06-21 16:44:00,82.0,53.1,30.33,WNW,292,1.0,7.0,37,0.00,,,0.00,Weather View 32 v70,2013-06-21 20:44:00,
2013-06-21 16:50:00,82.0,53.8,30.32,ESE,112,1.0,7.0,38,0.00,,,0.00,Weather View 32 v70,2013-06-21 20:50:00,
2013-06-21 16:55:00,82.0,53.8,30.32,West,270,1.0,7.0,38,0.00,,,0.00,Weather View 32 v70,2013-06-21 20:55:00,
2013-06-21 17:00:00,82.0,54.5,30.32,NW,315,0.0,7.0,39,0.00,,,0.00,Weather View 32 v70,2013-06-21 21:00:00,
2013-06-21 17:05:00,82.0,51.6,30.32,ENE,67,3.0,7.0,35,0.00,,,0.00,Weather View 32 v70,2013-06-21 21:05:00,
2013-06-21 17:10:00,82.0,51.6,30.32,East,90,0.0,7.0,35,0.00,,,0.00,Weather View 32 v70,2013-06-21 21:10:00,
2013-06-21 17:15:00,82.0,53.8,30.31,ENE,67,0.0,7.0,38,0.00,,,0.00,Weather View 32 v70,2013-06-21 21:15:00,
2013-06-21 17:20:00,82.0,53.8,30.31,ENE,67,2.0,7.0,38,0.00,,,0.00,Weather View 32 v70,2013-06-21 21:20:00,
2013-06-21 17:25:00,82.0,52.3,30.31,West,270,1.0,7.0,36,0.00,,,0.00,Weather View 32 v70,2013-06-21 21:25:00,
2013-06-21 17:30:00,82.0,52.3,30.31,West,270,0.0,7.0,36,0.00,,,0.00,Weather View 32 v70,2013-06-21 21:30:00,
2013-06-21 17:35:00,82.0,52.3,30.31,West,270,0.0,7.0,36,0.00,,,0.00,Weather View 32 v70,2013-06-21 21:35:00,
2013-06-21 17:40:00,82.0,51.6,30.31,West,270,2.0,7.0,35,0.00,,,0.00,Weather View 32 v70,2013-06-21 21:40:00,
2013-06-21 17:47:00,82.0,53.8,30.31,ENE,67,2.0,6.0,38,0.00,,,0.00,Weather View 32 v70,2013-06-21 21:47:00,
2013-06-21 17:52:00,81.0,52.9,30.31,ENE,67,3.0,6.0,38,0.00,,,0.00,Weather View 32 v70,2013-06-21 21:52:00,
2013-06-21 17:57:00,81.0,52.9,30.31,NW,315,0.0,6.0,38,0.00,,,0.00,Weather View 32 v70,2013-06-21 21:57:00,
2013-06-21 18:02:00,81.0,51.4,30.31,WNW,292,2.0,6.0,36,0.00,,,0.00,Weather View 32 v70,2013-06-21 22:02:00,
2013-06-21 18:07:00,81.0,52.9,30.31,WNW,292,0.0,6.0,38,0.00,,,0.00,Weather View 32 v70,2013-06-21 22:07:00,
2013-06-21 18:12:00,81.0,55.0,30.32,WNW,292,0.0,6.0,41,0.00,,,0.00,Weather View 32 v70,2013-06-21 22:12:00,
2013-06-21 18:17:00,81.0,55.7,30.32,WNW,292,0.0,6.0,42,0.00,,,0.00,Weather View 32 v70,2013-06-21 22:17:00,
2013-06-21 18:22:00,81.0,58.2,30.32,WNW,292,0.0,6.0,46,0.00,,,0.00,Weather View 32 v70,2013-06-21 22:22:00,
2013-06-21 18:27:00,81.0,56.3,30.32,SE,135,0.0,6.0,43,0.00,,,0.00,Weather View 32 v70,2013-06-21 22:27:00,
2013-06-21 18:32:00,81.0,57.6,30.32,SE,135,0.0,6.0,45,0.00,,,0.00,Weather View 32 v70,2013-06-21 22:32:00,
2013-06-21 18:37:00,81.0,58.2,30.32,SE,135,0.0,6.0,46,0.00,,,0.00,Weather View 32 v70,2013-06-21 22:37:00,
2013-06-21 18:42:00,81.0,56.3,30.32,WNW,292,2.0,6.0,43,0.00,,,0.00,Weather View 32 v70,2013-06-21 22:42:00,
2013-06-21 18:47:00,81.0,58.2,30.32,SW,225,1.0,6.0,46,0.00,,,0.00,Weather View 32 v70,2013-06-21 22:47:00,
2013-06-21 18:52:00,80.0,59.1,30.32,SW,225,0.0,6.0,49,0.00,,,0.00,Weather View 32 v70,2013-06-21 22:52:00,
2013-06-21 18:57:00,80.0,60.2,30.32,SW,225,0.0,6.0,51,0.00,,,0.00,Weather View 32 v70,2013-06-21 22:57:00,
2013-06-21 19:02:00,79.0,59.8,30.32,SW,225,0.0,6.0,52,0.00,,,0.00,Weather View 32 v70,2013-06-21 23:02:00,
2013-06-21 19:07:00,79.0,59.3,30.32,ENE,67,2.0,6.0,51,0.00,,,0.00,Weather View 32 v70,2013-06-21 23:07:00,
2013-06-21 19:12:00,79.0,60.3,30.33,East,90,0.0,6.0,53,0.00,,,0.00,Weather View 32 v70,2013-06-21 23:12:00,
2013-06-21 19:17:00,79.0,61.9,30.32,East,90,0.0,6.0,56,0.00,,,0.00,Weather View 32 v70,2013-06-21 23:17:00,
2013-06-21 19:22:00,78.0,62.0,30.32,East,90,0.0,6.0,58,0.00,,,0.00,Weather View 32 v70,2013-06-21 23:22:00,
2013-06-21 19:27:00,78.0,62.5,30.32,East,90,0.0,6.0,59,0.00,,,0.00,Weather View 32 v70,2013-06-21 23:27:00,
2013-06-21 19:32:00,78.0,65.7,30.32,East,90,0.0,6.0,66,0.00,,,0.00,Weather View 32 v70,2013-06-21 23:32:00,
2013-06-21 19:37:00,77.0,66.0,30.32,East,90,0.0,6.0,69,0.00,,,0.00,Weather View 32 v70,2013-06-21 23:37:00,
2013-06-21 19:42:00,77.0,67.2,30.32,East,90,0.0,4.0,72,0.00,,,0.00,Weather View 32 v70,2013-06-21 23:42:00,
2013-06-21 19:47:00,76.0,67.5,30.32,East,90,0.0,4.0,75,0.00,,,0.00,Weather View 32 v70,2013-06-21 23:47:00,
2013-06-21 19:52:00,76.0,71.1,30.32,East,90,0.0,4.0,85,0.00,,,0.00,Weather View 32 v70,2013-06-21 23:52:00,
2013-06-21 19:57:00,76.0,72.2,30.32,East,90,0.0,4.0,88,0.00,,,0.00,Weather View 32 v70,2013-06-21 23:57:00,
2013-06-21 20:02:00,75.0,65.3,30.32,East,90,0.0,4.0,72,0.00,,,0.00,Weather View 32 v70,2013-06-22 00:02:00,
2013-06-21 20:07:00,74.0,50.0,30.32,East,90,0.0,4.0,43,0.00,,,0.00,Weather View 32 v70,2013-06-22 00:07:00,
2013-06-21 20:12:00,74.0,43.8,30.32,East,90,0.0,2.0,34,0.00,,,0.00,Weather View 32 v70,2013-06-22 00:12:00,
2013-06-21 20:17:00,73.0,34.0,30.31,East,90,0.0,2.0,24,0.00,,,0.00,Weather View 32 v70,2013-06-22 00:17:00,
2013-06-21 20:22:00,73.0,34.0,30.31,East,90,0.0,2.0,24,0.00,,,0.00,Weather View 32 v70,2013-06-22 00:22:00,
2013-06-21 20:27:00,72.0,29.8,30.31,East,90,0.0,2.0,21,0.00,,,0.00,Weather View 32 v70,2013-06-22 00:27:00,
2013-06-21 20:32:00,72.0,23.3,30.31,East,90,0.0,1.0,16,0.00,,,0.00,Weather View 32 v70,2013-06-22 00:32:00,
2013-06-21 20:37:00,72.0,20.1,30.31,East,90,0.0,0.0,14,0.00,,,0.00,Weather View 32 v70,2013-06-22 00:37:00,
2013-06-21 20:42:00,71.0,11.6,30.31,East,90,0.0,0.0,10,0.00,,,0.00,Weather View 32 v70,2013-06-22 00:42:00,
2013-06-21 20:48:00,71.0,-3.5,30.31,East,90,0.0,0.0,5,0.00,,,0.00,Weather View 32 v70,2013-06-22 00:48:00,
2013-06-21 20:53:00,70.0,-0.3,30.31,East,90,0.0,0.0,6,0.00,,,0.00,Weather View 32 v70,2013-06-22 00:53:00,
2013-06-21 20:58:00,70.0,-14.5,30.31,East,90,0.0,0.0,3,0.00,,,0.00,Weather View 32 v70,2013-06-22 00:58:00,
2013-06-21 21:03:00,70.0,-22.4,30.31,East,90,0.0,0.0,2,0.00,,,0.00,Weather View 32 v70,2013-06-22 01:03:00,
2013-06-21 21:08:00,69.0,-35.7,30.31,East,90,0.0,0.0,1,0.00,,,0.00,Weather View 32 v70,2013-06-22 01:08:00,
2013-06-21 21:13:00,69.0,-35.7,30.31,East,90,0.0,0.0,1,0.00,,,0.00,Weather View 32 v70,2013-06-22 01:13:00,
2013-06-21 21:18:00,69.0,-35.7,30.31,East,90,0.0,0.0,1,0.00,,,0.00,Weather View 32 v70,2013-06-22 01:18:00,
2013-06-21 21:23:00,69.0,-35.7,30.31,East,90,0.0,0.0,1,0.00,,,0.00,Weather View 32 v70,2013-06-22 01:23:00,
2013-06-21 21:28:00,69.0,-35.7,30.31,East,90,0.0,0.0,1,0.00,,,0.00,Weather View 32 v70,2013-06-22 01:28:00,
2013-06-21 21:33:00,68.0,-36.3,30.31,East,90,0.0,0.0,1,0.00,,,0.00,Weather View 32 v70,2013-06-22 01:33:00,
2013-06-21 21:38:00,68.0,-36.3,30.31,East,90,0.0,0.0,1,0.00,,,0.00,Weather View 32 v70,2013-06-22 01:38:00,
2013-06-21 21:43:00,68.0,-36.3,30.31,East,90,0.0,0.0,1,0.00,,,0.00,Weather View 32 v70,2013-06-22 01:43:00,
2013-06-21 21:48:00,68.0,-36.3,30.31,East,90,0.0,0.0,1,0.00,,,0.00,Weather View 32 v70,2013-06-22 01:48:00,
2013-06-21 21:53:00,68.0,-36.3,30.31,East,90,0.0,0.0,1,0.00,,,0.00,Weather View 32 v70,2013-06-22 01:53:00,
2013-06-21 21:58:00,68.0,-36.3,30.31,East,90,0.0,0.0,1,0.00,,,0.00,Weather View 32 v70,2013-06-22 01:58:00,
2013-06-21 22:03:00,68.0,-36.3,30.31,East,90,0.0,1.0,1,0.00,,,0.00,Weather View 32 v70,2013-06-22 02:03:00,
2013-06-21 22:08:00,68.0,-36.3,30.31,East,90,0.0,1.0,1,0.00,,,0.00,Weather View 32 v70,2013-06-22 02:08:00,
2013-06-21 22:13:00,68.0,-36.3,30.31,East,90,0.0,1.0,1,0.00,,,0.00,Weather View 32 v70,2013-06-22 02:13:00,
2013-06-21 22:18:00,68.0,-36.3,30.31,East,90,0.0,2.0,1,0.00,,,0.00,Weather View 32 v70,2013-06-22 02:18:00,
2013-06-21 22:23:00,68.0,-36.3,30.31,East,90,0.0,2.0,1,0.00,,,0.00,Weather View 32 v70,2013-06-22 02:23:00,
2013-06-21 22:28:00,68.0,-36.3,30.31,East,90,0.0,2.0,1,0.00,,,0.00,Weather View 32 v70,2013-06-22 02:28:00,
2013-06-21 22:33:00,68.0,-36.3,30.31,East,90,0.0,2.0,1,0.00,,,0.00,Weather View 32 v70,2013-06-22 02:33:00,
2013-06-21 22:38:00,68.0,-36.3,30.31,East,90,0.0,2.0,1,0.00,,,0.00,Weather View 32 v70,2013-06-22 02:38:00,
2013-06-21 22:43:00,68.0,-36.3,30.31,East,90,0.0,2.0,1,0.00,,,0.00,Weather View 32 v70,2013-06-22 02:43:00,
2013-06-21 22:48:00,68.0,-36.3,30.31,SSE,157,0.0,3.0,1,0.00,,,0.00,Weather View 32 v70,2013-06-22 02:48:00,
2013-06-21 22:53:00,68.0,-36.3,30.31,SSE,157,0.0,3.0,1,0.00,,,0.00,Weather View 32 v70,2013-06-22 02:53:00,
2013-06-21 22:58:00,68.0,-36.3,30.31,SSE,157,0.0,3.0,1,0.00,,,0.00,Weather View 32 v70,2013-06-22 02:58:00,
2013-06-21 23:03:00,68.0,-36.3,30.31,SSE,157,0.0,3.0,1,0.00,,,0.00,Weather View 32 v70,2013-06-22 03:03:00,
2013-06-21 23:08:00,68.0,-36.3,30.31,SSE,157,0.0,3.0,1,0.00,,,0.00,Weather View 32 v70,2013-06-22 03:08:00,
2013-06-21 23:13:00,68.0,-36.3,30.31,SSE,157,0.0,3.0,1,0.00,,,0.00,Weather View 32 v70,2013-06-22 03:13:00,
2013-06-21 23:18:00,68.0,-36.3,30.31,SSE,157,0.0,3.0,1,0.00,,,0.00,Weather View 32 v70,2013-06-22 03:18:00,
2013-06-21 23:23:00,68.0,-36.3,30.31,SSE,157,0.0,3.0,1,0.00,,,0.00,Weather View 32 v70,2013-06-22 03:23:00,
2013-06-21 23:28:00,68.0,-36.3,30.31,SSE,157,0.0,3.0,1,0.00,,,0.00,Weather View 32 v70,2013-06-22 03:28:00,
2013-06-21 23:33:00,67.0,-36.9,30.31,SSE,157,0.0,3.0,1,0.00,,,0.00,Weather View 32 v70,2013-06-22 03:33:00,
2013-06-21 23:38:00,67.0,-36.9,30.31,SSE,157,0.0,3.0,1,0.00,,,0.00,Weather View 32 v70,2013-06-22 03:38:00,
2013-06-21 23:43:00,67.0,-36.9,30.31,SSE,157,0.0,3.0,1,0.00,,,0.00,Weather View 32 v70,2013-06-22 03:43:00,
2013-06-21 23:48:00,67.0,-36.9,30.31,SSE,157,0.0,3.0,1,0.00,,,0.00,Weather View 32 v70,2013-06-22 03:48:00,
2013-06-21 23:53:00,67.0,-36.9,30.31,SSE,157,0.0,3.0,1,0.00,,,0.00,Weather View 32 v70,2013-06-22 03:53:00,
2013-06-21 23:58:00,67.0,-36.9,30.31,SSE,157,0.0,2.0,1,0.00,,,0.00,Weather View 32 v70,2013-06-22 03:58:00,